Location: Hohe Wand Kleine Kanzel
(47.8330°N, 16.0170°E)
Time: 05:45:31
(UTC+02:00)

A-11 Canister half - All Passes

Search period start: 06 August 2021 00:00
Search period end: 16 August 2021 00:00
Orbit: 1513 x 1687 km, 47.2° (Epoch: 05 August)

Date Brightness Start Highest point End Pass type
(mag) Time Alt. Az. Time Alt. Az. Time Alt. Az.
06 Aug - 14:57:08 10° S 15:04:42 27° SE 15:12:29 10° E daylight
06 Aug - 16:58:49 10° SW 17:08:20 64° SSE 17:18:13 10° ENE daylight
06 Aug - 19:03:18 10° W 19:13:12 87° S 19:23:24 10° E daylight
06 Aug - 21:08:18 10° WNW 21:18:15 71° SSW 21:28:21 10° ESE visible
06 Aug - 23:13:35 10° WNW 23:22:17 35° SW 23:31:02 10° SSE visible
07 Aug - 14:34:34 10° S 14:41:53 26° SE 14:49:24 10° E daylight
07 Aug - 16:35:59 10° SW 16:45:25 62° SSE 16:55:14 10° ENE daylight
07 Aug - 18:40:22 10° W 18:50:14 87° S 19:00:26 10° E daylight
07 Aug - 20:45:22 10° WNW 20:55:18 73° SSW 21:05:26 10° ESE visible
07 Aug - 22:50:35 10° WNW 22:59:25 36° SW 23:08:20 10° SSE visible
08 Aug - 14:12:01 10° S 14:19:05 24° SE 14:26:18 10° E daylight
08 Aug - 16:13:09 10° SW 16:22:31 60° SSE 16:32:16 10° ENE daylight
08 Aug - 18:17:27 10° W 18:27:17 87° S 18:37:27 10° E daylight
08 Aug - 20:22:26 10° WNW 20:32:21 75° SSW 20:42:30 10° ESE daylight
08 Aug - 22:27:36 10° WNW 22:36:33 38° SW 22:45:36 10° SSE visible
09 Aug - 13:49:30 10° S 13:56:16 22° SE 14:03:11 10° E daylight
09 Aug - 15:50:20 10° SW 15:59:37 58° SSE 16:09:17 10° ENE daylight
09 Aug - 17:54:32 10° W 18:04:19 86° S 18:14:28 10° E daylight
09 Aug - 19:59:30 10° W 20:09:25 77° SSW 20:19:34 10° ESE daylight
09 Aug - 22:04:37 10° WNW 22:13:40 40° SW 22:22:50 10° SSE visible
10 Aug - 00:13:51 10° WSW 00:16:29 11° WSW 00:19:07 10° SW visible
10 Aug - 13:27:02 10° S 13:33:28 21° SE 13:40:02 10° E daylight
10 Aug - 15:27:31 10° SW 15:36:44 56° SSE 15:46:19 10° ENE daylight
10 Aug - 17:31:37 10° W 17:41:23 86° S 17:51:29 10° E daylight
10 Aug - 19:36:34 10° W 19:46:28 78° SSW 19:56:37 10° ESE daylight
10 Aug - 21:41:39 10° WNW 21:50:48 42° SW 22:00:04 10° SSE visible
10 Aug - 23:50:02 10° W 23:53:41 12° WSW 23:57:22 10° SW visible
11 Aug - 13:04:36 10° SSE 13:10:40 19° SE 13:16:52 10° E daylight
11 Aug - 15:04:44 10° SW 15:13:51 53° SSE 15:23:19 10° ENE daylight
11 Aug - 17:08:43 10° WSW 17:18:25 85° S 17:28:31 10° E daylight
11 Aug - 19:13:40 10° W 19:23:31 79° SSW 19:33:40 10° ESE daylight
11 Aug - 21:18:41 10° WNW 21:27:54 44° SW 21:37:17 10° SSE visible
11 Aug - 23:26:28 10° W 23:30:53 14° WSW 23:35:20 10° SSW visible
12 Aug - 12:42:13 10° SSE 12:47:53 18° SE 12:53:39 10° E daylight
12 Aug - 14:41:56 10° SW 14:50:58 51° SSE 15:00:21 10° ENE daylight
12 Aug - 16:45:48 10° WSW 16:55:29 84° S 17:05:33 10° E daylight
12 Aug - 18:50:44 10° W 19:00:34 81° SSW 19:10:44 10° ESE daylight
12 Aug - 20:55:44 10° WNW 21:05:01 46° SW 21:14:28 10° SSE visible
12 Aug - 23:03:04 10° W 23:08:05 15° SW 23:13:08 10° SSW visible
13 Aug - 12:19:54 10° SSE 12:25:06 16° SE 12:30:23 10° E daylight
13 Aug - 14:19:10 10° SW 14:28:06 49° SE 14:37:23 10° ENE daylight
13 Aug - 16:22:54 10° WSW 16:32:32 83° SSE 16:42:34 10° E daylight
13 Aug - 18:27:48 10° W 18:37:38 82° SSW 18:47:46 10° ESE daylight
13 Aug - 20:32:47 10° WNW 20:42:08 48° SW 20:51:40 10° SE visible
13 Aug - 22:39:45 10° W 22:45:17 16° SW 22:50:52 10° SSW visible
14 Aug - 11:57:39 10° SSE 12:02:19 15° SE 12:07:03 10° E daylight
14 Aug - 13:56:25 10° SSW 14:05:14 47° SE 14:14:24 10° ENE daylight
14 Aug - 16:00:01 10° WSW 16:09:35 82° SSE 16:19:35 10° E daylight
14 Aug - 18:04:54 10° W 18:14:41 83° S 18:24:48 10° ESE daylight
14 Aug - 20:09:50 10° WNW 20:19:14 50° SW 20:28:50 10° SE daylight
14 Aug - 22:16:30 10° W 22:22:28 18° SW 22:28:30 10° SSW visible
15 Aug - 11:35:31 10° SSE 11:39:33 13° ESE 11:43:37 10° E daylight
15 Aug - 13:33:39 10° SSW 13:42:23 45° SE 13:51:25 10° ENE daylight
15 Aug - 15:37:07 10° WSW 15:46:40 80° SSE 15:56:37 10° E daylight
15 Aug - 17:41:58 10° W 17:51:44 84° S 18:01:50 10° ESE daylight
15 Aug - 19:46:54 10° WNW 19:56:20 52° SSW 20:06:00 10° SE daylight
15 Aug - 21:53:18 10° W 21:59:39 19° SW 22:06:04 10° SSW visible
